Weather History for Oscoda, MI

Change the Weather History Date:

Tuesday, February 5, 2013

  Actual Average Record
Temperature  
Mean Temperature 10 °F -  
Max Temperature 22 °F 29 °F 44 °F (2005)
Min Temperature -2 °F 14 °F -14 °F (2009)
Degree Days  
Heating Degree Days 55    
Moisture  
Dew Point 8 °F    
Average Humidity 82    
Maximum Humidity 90    
Minimum Humidity 67    
Precipitation  
Precipitation 0.00 in - - ()
Sea Level Pressure  
Sea Level Pressure 29.83 in    
Wind  
Wind Speed 4 mph (SW)    
Max Wind Speed 18 mph    
Max Gust Speed 24 mph    
Visibility 8 miles    
Events Snow    
Averages and records for this station are not official NWS values.
T = Trace of Precipitation, MM = Missing Value Source: NWS Daily Summary

Daily Weather History Graph

Daily Weather History Graph

Search for Another Location

Airport:

Trip Planner

Search our weather history database for the weather conditions in past years. The results will help you decide how hot, cold, wet, or windy it might be!

Date:

Astronomy

Feb. 05, 2013 Rise Set
Actual Time 7:46 AM EST 5:48 PM EST
Civil Twilight 7:16 AM EST 6:19 PM EST
Nautical Twilight 6:41 AM EST 6:54 PM EST
Astronomical Twilight 6:07 AM EST 7:28 PM EST
Moon 3:31 AM EST (2/5) 1:00 PM EST (2/5)
Length of Visible Light 11h 03m
Length of Day
10h 01m
Waning Crescent, 27% of the Moon is Illuminated
Feb 5
Waning Crescent
Feb 10
New
Feb 17
First Quarter
Feb 25
Full
Mar 4
Last Quarter

Hourly Weather History & Observations

Time (EST) Temp. Windchill Dew Point Humidity Pressure Visibility Wind Dir Wind Speed Gust Speed Precip Events Conditions
12:14 AM 6.1 °F - 0.7 °F 78% 29.91 in 10.0 mi Calm Calm - N/A   Clear
12:33 AM 6.4 °F - 1.0 °F 78% 29.91 in 10.0 mi Calm Calm - N/A   Clear
12:53 AM 5.2 °F - 0.7 °F 82% 29.91 in 10.0 mi Calm Calm - N/A   Clear
1:14 AM 4.3 °F - -0.6 °F 80% 29.90 in 10.0 mi Calm Calm - N/A   Clear
1:33 AM 5.2 °F - -0.0 °F 79% 29.90 in 10.0 mi Calm Calm - N/A   Clear
1:53 AM 5.0 °F - 0.3 °F 81% 29.90 in 10.0 mi Calm Calm - N/A   Clear
2:14 AM 3.9 °F - -0.9 °F 80% 29.90 in 10.0 mi Calm Calm - N/A   Clear
2:33 AM 3.2 °F - -1.8 °F 80% 29.89 in 10.0 mi Calm Calm - N/A   Clear
2:53 AM 1.4 °F - -3.3 °F 81% 29.89 in 10.0 mi Calm Calm - N/A   Clear
3:14 AM 2.5 °F - -3.3 °F 77% 29.89 in 10.0 mi Calm Calm - N/A   Clear
3:33 AM 1.9 °F - -3.1 °F 79% 29.89 in 10.0 mi Calm Calm - N/A   Clear
3:53 AM 0.5 °F - -4.5 °F 79% 29.88 in 10.0 mi Calm Calm - N/A   Clear
4:14 AM 0.1 °F - -4.0 °F 83% 29.88 in 10.0 mi Calm Calm - N/A   Clear
4:33 AM -1.1 °F - -5.4 °F 82% 29.88 in 10.0 mi Calm Calm - N/A   Clear
4:53 AM -1.1 °F - -5.1 °F 83% 29.87 in 10.0 mi Calm Calm - N/A   Clear
5:14 AM -0.9 °F - -4.7 °F 84% 29.87 in 10.0 mi Calm Calm - N/A   Clear
5:33 AM -2.2 °F -10.4 °F -7.2 °F 79% 29.87 in 10.0 mi West 3.5 mph - N/A   Clear
5:53 AM -0.6 °F - -4.0 °F 85% 29.87 in 10.0 mi Calm Calm - N/A   Clear
6:14 AM -1.3 °F -9.3 °F -5.8 °F 81% 29.87 in 10.0 mi WSW 3.5 mph - N/A   Clear
6:33 AM -2.2 °F -10.4 °F -6.2 °F 83% 29.87 in 10.0 mi SW 3.5 mph - N/A   Clear
6:54 AM 0.5 °F - -3.5 °F 83% 29.86 in 10.0 mi Calm Calm - N/A   Clear
7:14 AM 0.9 °F - -3.5 °F 82% 29.86 in 10.0 mi Calm Calm - N/A   Mostly Cloudy
7:33 AM 1.6 °F - -2.2 °F 84% 29.86 in 10.0 mi Calm Calm - N/A   Overcast
7:54 AM 4.1 °F -5.1 °F 0.7 °F 86% 29.87 in 10.0 mi WSW 4.6 mph - N/A   Overcast
8:14 AM 5.5 °F -5.0 °F 1.8 °F 84% 29.87 in 10.0 mi SW 5.8 mph - N/A   Overcast
8:33 AM 7.0 °F -3.3 °F 3.0 °F 84% 29.85 in 10.0 mi SSW 5.8 mph - N/A   Overcast
8:54 AM 9.0 °F 2.4 °F 4.1 °F 81% 29.87 in 10.0 mi WSW 3.5 mph - N/A   Overcast
9:14 AM 9.5 °F -0.3 °F 4.8 °F 81% 29.85 in 10.0 mi SW 5.8 mph - N/A   Overcast
9:33 AM 10.6 °F 1.0 °F 5.5 °F 80% 29.85 in 10.0 mi SSW 5.8 mph - N/A   Overcast
9:54 AM 11.3 °F 1.9 °F 6.1 °F 80% 29.83 in 10.0 mi SSW 5.8 mph - N/A   Overcast
10:14 AM 13.3 °F 4.2 °F 7.9 °F 79% 29.83 in 10.0 mi SSW 5.8 mph - N/A   Overcast
10:33 AM 14.7 °F 2.9 °F 7.2 °F 72% 29.83 in 10.0 mi SSW 9.2 mph - N/A   Overcast
10:54 AM 15.8 °F 5.1 °F 7.7 °F 70% 29.82 in 10.0 mi SSW 8.1 mph - N/A   Overcast
11:13 AM 16.7 °F 7.2 °F 8.4 °F 70% 29.82 in 10.0 mi SW 6.9 mph - N/A   Overcast
11:33 AM 17.4 °F 4.7 °F 8.2 °F 67% 29.82 in 10.0 mi SSW 11.5 mph - N/A Snow Light Snow
11:54 AM 18.0 °F 6.9 °F 9.5 °F 70% 29.81 in 4.0 mi SSW 9.2 mph - N/A Snow Light Snow
12:13 PM 18.1 °F 5.0 °F 10.0 °F 71% 29.79 in 5.0 mi SSW 12.7 mph - N/A Snow Light Snow
12:33 PM 17.6 °F 3.7 °F 11.1 °F 76% 29.78 in 1.5 mi SSW 13.8 mph 18.4 mph N/A Snow Light Snow
12:54 PM 17.6 °F 9.3 °F 12.2 °F 79% 29.78 in 2.5 mi SSW 5.8 mph - N/A Snow Light Snow
1:13 PM 18.1 °F 5.6 °F 12.6 °F 79% 29.76 in 3.0 mi South 11.5 mph 17.3 mph N/A Snow Light Snow
1:33 PM 18.3 °F 5.2 °F 13.8 °F 83% 29.74 in 3.0 mi South 12.7 mph - N/A Snow Light Snow
1:54 PM 18.5 °F 4.9 °F 14.5 °F 85% 29.73 in 1.2 mi South 13.8 mph 18.4 mph N/A Snow Light Snow
2:13 PM 18.7 °F 7.0 °F 14.9 °F 85% 29.72 in 0.8 mi South 10.4 mph 19.6 mph N/A Snow Light Snow
2:33 PM 19.0 °F 7.5 °F 15.8 °F 87% 29.72 in 0.5 mi SSW 10.4 mph 21.9 mph N/A Snow Snow
2:54 PM 20.1 °F 6.9 °F 16.7 °F 87% 29.71 in 1.0 mi SSW 13.8 mph 18.4 mph N/A Snow Light Snow
3:13 PM 20.5 °F 9.2 °F 17.1 °F 87% 29.70 in 1.8 mi South 10.4 mph - N/A Snow Light Snow
3:33 PM 21.0 °F 8.1 °F 17.4 °F 86% 29.71 in 3.0 mi SSW 13.8 mph 19.6 mph N/A Snow Light Snow
3:53 PM 21.2 °F 6.4 °F 17.4 °F 85% 29.71 in 5.0 mi SW 18.4 mph 24.2 mph N/A Snow Light Snow
4:13 PM 21.2 °F 9.5 °F 17.4 °F 85% 29.71 in 7.0 mi SW 11.5 mph 18.4 mph N/A Snow Light Snow
4:34 PM 21.2 °F 10.9 °F 17.6 °F 86% 29.72 in 7.0 mi SW 9.2 mph - N/A   Overcast
4:53 PM 21.2 °F 10.9 °F 17.6 °F 86% 29.73 in 7.0 mi SW 9.2 mph - N/A Snow Light Snow
5:13 PM 21.6 °F 10.6 °F 18.0 °F 86% 29.72 in 5.0 mi SW 10.4 mph - N/A Snow Light Snow
5:34 PM 21.4 °F 11.1 °F 18.3 °F 88% 29.73 in 7.0 mi SW 9.2 mph - N/A Snow Light Snow
5:53 PM 21.6 °F 13.0 °F 18.3 °F 87% 29.75 in 10.0 mi WSW 6.9 mph - N/A   Overcast
6:13 PM 21.2 °F 12.6 °F 18.3 °F 89% 29.76 in 10.0 mi SW 6.9 mph - N/A Snow Light Snow
6:34 PM 21.6 °F 12.1 °F 18.5 °F 88% 29.76 in 7.0 mi SSW 8.1 mph - N/A Snow Light Snow
6:53 PM 21.6 °F 12.1 °F 18.7 °F 89% 29.77 in 10.0 mi SW 8.1 mph - N/A Snow Light Snow
7:13 PM 21.6 °F 13.0 °F 18.9 °F 89% 29.78 in 7.0 mi SW 6.9 mph - N/A Snow Light Snow
7:34 PM 21.6 °F 13.0 °F 19.0 °F 90% 29.79 in 7.0 mi WSW 6.9 mph - N/A Snow Light Snow
7:53 PM 22.1 °F 12.8 °F 19.0 °F 88% 29.80 in 7.0 mi West 8.1 mph - N/A Snow Light Snow
8:13 PM 22.1 °F 12.0 °F 18.0 °F 84% 29.81 in 10.0 mi WNW 9.2 mph - N/A Snow Light Snow
8:34 PM 19.9 °F 11.1 °F 14.9 °F 81% 29.82 in 10.0 mi WNW 6.9 mph - N/A   Scattered Clouds
8:53 PM 17.6 °F 8.2 °F 13.1 °F 83% 29.84 in 10.0 mi WNW 6.9 mph - N/A   Clear
9:13 PM 18.5 °F 9.3 °F 13.1 °F 79% 29.85 in 10.0 mi WNW 6.9 mph - N/A   Mostly Cloudy
9:34 PM 18.5 °F 11.7 °F 13.1 °F 79% 29.86 in 10.0 mi West 4.6 mph - N/A   Overcast
9:53 PM 18.5 °F 10.4 °F 13.1 °F 79% 29.87 in 10.0 mi West 5.8 mph - N/A   Overcast
10:14 PM 18.3 °F 8.2 °F 12.9 °F 79% 29.89 in 10.0 mi West 8.1 mph - N/A Snow Light Snow
10:34 PM 19.2 °F 9.3 °F 13.8 °F 80% 29.90 in 7.0 mi WNW 8.1 mph - N/A Snow Light Snow
10:53 PM 18.0 °F 9.8 °F 12.7 °F 80% 29.89 in 10.0 mi WNW 5.8 mph - N/A   Overcast
11:14 PM 16.2 °F 7.6 °F 11.5 °F 82% 29.91 in 10.0 mi West 5.8 mph - N/A   Overcast
11:34 PM 16.0 °F 6.3 °F 10.9 °F 81% 29.92 in 10.0 mi WNW 6.9 mph - N/A   Mostly Cloudy
11:53 PM 15.1 °F 6.4 °F 9.0 °F 77% 29.92 in 10.0 mi West 5.8 mph - N/A   Scattered Clouds